Home > Weather > Prince Albert > Past weeks

Flag for Canada Weather for the Past 2 Weeks in Prince Albert, Saskatchewan, Canada

Now
34 °F

Fog.


Feels Like: 34 °F
Forecast: 44 / 78 °F
Wind: 2 mph from East

Location: Prince Albert

Current Time: May 2, 2016 at 6:47:38 AM

Latest Report: May 2, 2016 at 6:00 AM


Visibility: 15 mi

Pressure: 30.09 "Hg

Humidity: 87%

Dew Point: 30 °F

Location of Prince AlbertLocation

Historic Weather in Prince Albert — Graph

°F

Prince Albert Temperature Yesterday

Maximum temperature yesterday: 73 °F (at 2:00 PM)
Minimum temperature yesterday: 43 °F (at 6:00 AM)
Average temperature yesterday: 58 °F

High & Low Weather Summary for the Past Weeks

 TemperatureHumidityPressure
High73 °F (Apr 19, 3:00 PM)93% (Apr 29, 6:00 AM)30.58 "Hg (Apr 29, 6:00 AM)
Low23 °F (Apr 17, 6:00 AM)13% (Apr 19, 3:00 PM)29.83 "Hg (Apr 20, 12:00 AM)
Average47 °F44%30.22 "Hg
* Reported Apr 17 5:00 AM — May 2 5:00 AM, Prince Albert, Weather by CustomWeather, © 2016

Note: Actual official high and low records may vary slightly from our data, if they occured in-between our weather recording intervals... More about our weather records

Advertising

Prince Albert Weather History for the Previous 24 Hours

Scroll right to see more
 ConditionsComfort  
Time TempWeatherWind HumidityBarometerVisibility
5:00 AM
Mon, May 2
36 °FPassing clouds.No wind87%30.08 "Hg15 mi
4:00 AM36 °FPassing clouds.2 mph87%30.07 "Hg15 mi
3:00 AM39 °FPassing clouds.2 mph81%30.06 "Hg15 mi
2:00 AM45 °FClear.5 mph76%30.06 "Hg15 mi
1:00 AM48 °FPassing clouds.6 mph71%30.06 "Hg15 mi
12:00 AM46 °FPassing clouds.7 mph71%30.06 "Hg15 mi
11:00 PM
Sun, May 1
54 °FPassing clouds.8 mph54%30.05 "Hg15 mi
10:00 PM45 °FPassing clouds.No wind49%30.06 "Hg15 mi
9:00 PM55 °FHigh level clouds.3 mph31%30.05 "Hg15 mi
8:00 PM63 °FHigh level clouds.8 mph24%30.03 "Hg15 mi
7:00 PM66 °FPartly sunny.9 mph24%30.03 "Hg15 mi
6:00 PM70 °FPartly sunny.12 mph21%30.03 "Hg15 mi
5:00 PM73 °FPartly sunny.12 mph19%30.03 "Hg15 mi
4:00 PM72 °FPartly sunny.14 mph20%30.04 "Hg15 mi
3:00 PM72 °FPartly sunny.15 mph22%30.06 "Hg15 mi
2:00 PM73 °FPassing clouds.14 mph20%30.08 "Hg15 mi
1:00 PM72 °FPassing clouds.15 mph23%30.11 "Hg15 mi
12:00 PM70 °FPartly sunny.14 mph25%30.14 "Hg15 mi
11:00 AM68 °FPartly sunny.15 mph33%30.16 "Hg15 mi
10:00 AM64 °FPartly sunny.15 mph37%30.19 "Hg15 mi
9:00 AM59 °FScattered clouds.10 mph45%30.22 "Hg15 mi
8:00 AM52 °FPartly sunny.6 mph54%30.24 "Hg15 mi
7:00 AM46 °FPartly sunny.3 mph62%30.25 "Hg15 mi
6:00 AM43 °FBroken clouds.5 mph66%30.25 "Hg15 mi
Weather by CustomWeather, © 2016

See weather overviewHow to use our weather pages